Carmi, IL

11:07 AM CDT on July 23, 2016 (GMT -0500)
Carmi Municipal

Weather History for KCUL - March, 2014

Change the Weather History Date:

Friday, March 21, 2014

  Actual Average (KEVV) Record (KEVV)
Temperature  
Mean Temperature 54 °F 48 °F  
Max Temperature 71 °F 59 °F 83 °F (2012)
Min Temperature 37 °F 37 °F 21 °F (1986)
Degree Days  
Heating Degree Days 11 17  
Month to date heating degree days 434  
Since 1 July heating degree days 4008  
Cooling Degree Days 0 0  
Month to date cooling degree days 0  
Year to date cooling degree days 0  
Growing Degree Days 4 (Base 50)    
Moisture  
Dew Point 36 °F    
Average Humidity 51    
Maximum Humidity 84    
Minimum Humidity 27    
Precipitation  
Precipitation 0.00 in 0.15 in 1.68 in (1952)
Month to date precipitation 2.76  
Year to date precipitation 9.03  
Snow  
Snow 0.00 in 0.00 in 1.90 in (1984)
Month to date snowfall 0.8  
Since 1 July snowfall 11.5  
Snow Depth -    
Sea Level Pressure  
Sea Level Pressure 29.93 in    
Wind  
Wind Speed 11 mph (SSW)    
Max Wind Speed 21 mph    
Max Gust Speed 28 mph    
Visibility 10 miles    
Events      
T = Trace of Precipitation, MM = Missing Value Source: NWS Daily Summary

Daily Weather History Graph

Daily Weather History Graph

Search for Another Location

Airport or City:

Trip Planner

Search our weather history database for the weather conditions in past years. The results will help you decide how hot, cold, wet, or windy it might be!

Date:

Astronomy

Mar. 21, 2014 Rise Set
Actual Time 6:54 AM CDT 7:05 PM CDT
Civil Twilight 6:28 AM CDT 7:31 PM CDT
Nautical Twilight 5:57 AM CDT 8:02 PM CDT
Astronomical Twilight 5:26 AM CDT 8:33 PM CDT
Moon No Moon Rise 9:50 AM CDT (3/21)
Length of Visible Light 13h 03m
Length of Day
12h 10m
Waning Gibbous, 75% of the Moon is Illuminated
Mar 21
Waning Gibbous
Mar 23
Last Quarter
Mar 30
New
Apr 7
First Quarter
Apr 15
Full

Hourly Weather History & Observations

Time (CDT) Temp. Windchill Dew Point Humidity Pressure Visibility Wind Dir Wind Speed Gust Speed Precip Events Conditions
12:15 AM 45.9 °F 40.4 °F 34.7 °F 65% 30.02 in 10.0 mi South 11.5 mph - N/A   Clear
12:35 AM 44.8 °F 39.4 °F 35.1 °F 69% 30.02 in 10.0 mi South 10.4 mph - N/A   Clear
12:55 AM 44.6 °F 38.8 °F 35.1 °F 69% 30.01 in 10.0 mi South 11.5 mph - N/A   Clear
1:15 AM 44.2 °F 38.4 °F 35.1 °F 70% 30.01 in 10.0 mi South 11.5 mph - N/A   Clear
1:35 AM 44.8 °F 39.4 °F 35.1 °F 69% 30.01 in 10.0 mi South 10.4 mph - N/A   Clear
1:55 AM 43.5 °F 38.3 °F 35.2 °F 73% 30.01 in 10.0 mi South 9.2 mph - N/A   Clear
2:15 AM 43.3 °F 38.6 °F 34.9 °F 72% 30.00 in 10.0 mi South 8.1 mph - N/A   Clear
2:35 AM 42.4 °F 37.5 °F 34.7 °F 74% 30.00 in 10.0 mi South 8.1 mph - N/A   Clear
2:55 AM 41.7 °F 36.7 °F 34.9 °F 77% 30.00 in 10.0 mi South 8.1 mph - N/A   Clear
3:15 AM 42.3 °F 36.8 °F 34.9 °F 75% 29.99 in 10.0 mi South 9.2 mph - N/A   Clear
3:35 AM 43.3 °F 38.1 °F 34.7 °F 72% 29.98 in 10.0 mi South 9.2 mph - N/A   Clear
3:55 AM 41.2 °F 36.0 °F 34.5 °F 77% 29.98 in 10.0 mi South 8.1 mph - N/A   Clear
4:15 AM 40.1 °F 36.1 °F 34.2 °F 79% 29.98 in 10.0 mi SSE 5.8 mph - N/A   Clear
4:35 AM 39.4 °F 36.1 °F 34.2 °F 82% 29.98 in 10.0 mi South 4.6 mph - N/A   Clear
4:55 AM 39.7 °F 36.5 °F 34.5 °F 82% 29.98 in 10.0 mi SSE 4.6 mph - N/A   Clear
5:15 AM 38.7 °F 34.3 °F 34.0 °F 83% 29.98 in 10.0 mi South 5.8 mph - N/A   Clear
5:35 AM 37.8 °F 33.3 °F 33.4 °F 84% 29.98 in 10.0 mi South 5.8 mph - N/A   Clear
5:55 AM 38.3 °F 35.9 °F 33.8 °F 84% 29.98 in 10.0 mi SSE 3.5 mph - N/A   Clear
6:15 AM 39.0 °F 35.7 °F 34.0 °F 82% 29.98 in 10.0 mi South 4.6 mph - N/A   Clear
6:35 AM 38.3 °F 33.9 °F 33.8 °F 84% 29.98 in 10.0 mi SSE 5.8 mph - N/A   Clear
6:55 AM 40.1 °F 34.7 °F 34.7 °F 81% 29.98 in 10.0 mi SSE 8.1 mph - N/A   Clear
7:15 AM 40.3 °F 34.9 °F 35.2 °F 82% 29.98 in 10.0 mi SSE 8.1 mph - N/A   Clear
7:35 AM 40.3 °F 36.3 °F 35.6 °F 83% 29.98 in 10.0 mi SSE 5.8 mph - N/A   Clear
7:55 AM 43.9 °F 39.3 °F 37.4 °F 78% 29.98 in 10.0 mi SSE 8.1 mph - N/A   Clear
8:15 AM 46.2 °F 42.2 °F 37.9 °F 73% 29.98 in 10.0 mi SSE 8.1 mph - N/A   Clear
8:35 AM 49.3 °F - 38.1 °F 65% 29.97 in 10.0 mi SSE 8.1 mph - N/A   Clear
8:55 AM 52.0 °F - 37.0 °F 57% 29.97 in 10.0 mi South 9.2 mph - N/A   Clear
9:15 AM 54.7 °F - 36.1 °F 50% 29.98 in 10.0 mi South 10.4 mph - N/A   Clear
9:35 AM 57.6 °F - 35.6 °F 44% 29.97 in 10.0 mi SSW 8.1 mph - N/A   Clear
9:55 AM 60.1 °F - 35.1 °F 39% 29.98 in 10.0 mi SW 15.0 mph 18.4 mph N/A   Clear
10:15 AM 61.7 °F - 34.7 °F 36% 29.98 in 10.0 mi SSW 15.0 mph - N/A   Clear
10:35 AM 63.3 °F - 34.7 °F 34% 29.97 in 10.0 mi SSW 12.7 mph 16.1 mph N/A   Clear
10:55 AM 64.8 °F - 34.5 °F 33% 29.97 in 10.0 mi SW 13.8 mph - N/A   Clear
11:15 AM 65.3 °F - 34.7 °F 32% 29.97 in 10.0 mi SSW 17.3 mph - N/A   Clear
11:35 AM 66.6 °F - 34.5 °F 31% 29.97 in 10.0 mi SSW 13.8 mph - N/A   Clear
11:55 AM 66.9 °F - 34.2 °F 30% 29.96 in 10.0 mi SSW 18.4 mph 24.2 mph N/A   Clear
12:15 PM 66.4 °F - 35.2 °F 32% 29.96 in 10.0 mi SW 12.7 mph 24.2 mph N/A   Clear
12:35 PM 68.2 °F - 36.0 °F 31% 29.95 in 10.0 mi SSW 17.3 mph 23.0 mph N/A   Clear
12:55 PM 69.1 °F - 35.2 °F 29% 29.94 in 10.0 mi SW 17.3 mph 26.5 mph N/A   Clear
1:15 PM 68.5 °F - 34.2 °F 28% 29.93 in 10.0 mi SW 17.3 mph 25.3 mph N/A   Clear
1:35 PM 68.9 °F - 35.8 °F 30% 29.92 in 10.0 mi SSW 17.3 mph 25.3 mph N/A   Clear
1:55 PM 70.0 °F - 35.1 °F 28% 29.91 in 10.0 mi SSW 17.3 mph 27.6 mph N/A   Clear
2:15 PM 70.3 °F - 36.0 °F 28% 29.89 in 10.0 mi SSW 17.3 mph 24.2 mph N/A   Clear
2:35 PM 71.1 °F - 35.4 °F 27% 29.88 in 10.0 mi SW 13.8 mph 18.4 mph N/A   Clear
2:55 PM 71.2 °F - 36.3 °F 28% 29.87 in 10.0 mi South 19.6 mph - N/A   Clear
3:15 PM 71.6 °F - 37.2 °F 29% 29.87 in 10.0 mi South 19.6 mph - N/A   Clear
3:35 PM 70.7 °F - 37.4 °F 30% 29.87 in 10.0 mi South 20.7 mph 25.3 mph N/A   Clear
3:55 PM 70.9 °F - 37.0 °F 29% 29.86 in 10.0 mi SSW 16.1 mph 27.6 mph N/A   Clear
4:15 PM 71.4 °F - 37.4 °F 29% 29.85 in 10.0 mi South 18.4 mph 26.5 mph N/A   Clear
4:35 PM 69.8 °F - 36.9 °F 30% 29.85 in 10.0 mi South 18.4 mph 24.2 mph N/A   Clear
4:55 PM 68.5 °F - 36.5 °F 31% 29.84 in 10.0 mi South 17.3 mph 24.2 mph N/A   Clear
5:15 PM 68.2 °F - 36.3 °F 31% 29.84 in 10.0 mi SSW 17.3 mph 24.2 mph N/A   Clear
5:35 PM 68.0 °F - 34.7 °F 29% 29.85 in 10.0 mi SW 20.7 mph 26.5 mph N/A   Clear
5:55 PM 67.3 °F - 35.6 °F 31% 29.85 in 10.0 mi SSW 13.8 mph 24.2 mph N/A   Clear
6:15 PM 66.6 °F - 35.6 °F 32% 29.85 in 10.0 mi SSW 15.0 mph 23.0 mph N/A   Clear
6:35 PM 66.0 °F - 35.4 °F 32% 29.86 in 10.0 mi SSW 15.0 mph 24.2 mph N/A   Clear
6:55 PM 65.5 °F - 34.5 °F 32% 29.85 in 10.0 mi SSW 17.3 mph 24.2 mph N/A   Clear
7:15 PM 64.6 °F - 35.2 °F 34% 29.85 in 10.0 mi SSW 17.3 mph 24.2 mph N/A   Clear
7:35 PM 63.9 °F - 35.6 °F 35% 29.87 in 10.0 mi SSW 13.8 mph 18.4 mph N/A   Clear
7:55 PM 63.0 °F - 36.1 °F 37% 29.86 in 10.0 mi SSW 12.7 mph - N/A   Clear
8:15 PM 62.1 °F - 37.2 °F 40% 29.85 in 10.0 mi South 13.8 mph 18.4 mph N/A   Clear
8:35 PM 60.8 °F - 38.3 °F 43% 29.85 in 10.0 mi South 13.8 mph - N/A   Clear
8:55 PM 60.4 °F - 38.7 °F 45% 29.85 in 10.0 mi South 15.0 mph - N/A   Clear
9:15 PM 60.3 °F - 38.8 °F 45% 29.84 in 10.0 mi SSW 13.8 mph - N/A   Clear
9:35 PM 60.6 °F - 39.2 °F 45% 29.85 in 10.0 mi SSW 13.8 mph 19.6 mph N/A   Clear
9:55 PM 60.4 °F - 39.2 °F 45% 29.86 in 10.0 mi SSW 15.0 mph 18.4 mph N/A   Clear
10:15 PM 60.4 °F - 39.6 °F 46% 29.86 in 10.0 mi SSW 13.8 mph - N/A   Clear
10:35 PM 61.2 °F - 39.9 °F 46% 29.87 in 10.0 mi SSW 13.8 mph - N/A   Clear
10:55 PM 59.2 °F - 40.8 °F 51% 29.89 in 10.0 mi WSW 8.1 mph - N/A   Clear
11:15 PM 57.2 °F - 41.2 °F 55% 29.91 in 10.0 mi West 12.7 mph - N/A   Clear
11:35 PM 57.4 °F - 42.1 °F 57% 29.91 in 10.0 mi West 9.2 mph - N/A   Clear
11:55 PM 55.6 °F - 41.9 °F 60% 29.91 in 10.0 mi SW 5.8 mph - N/A   Clear